Powrót do katalogu

STARLINK-34633

AktywnyŁącznośćVLEO
NORAD 64804·PAYLOAD·🇺🇸 United States

Wystrzelony Jul 16, 2025 z Vandenberg Space Force Base

Loading…

Następne Przeloty (najbliższe 24 godziny)

TLE

ŚwieżeSource: CelesTrak SupGP

Epoka: Sep 15, 2026, 02:32 UTC

1 64804C 25150Q   26258.10604167  .00026240  00000+0  21996-2 0  2583
2 64804  70.0025  16.8508 0003221 267.9547 316.6462 14.98307085    18

Śledź STARLINK-34633 w czasie rzeczywistym z AllMySat

Download on the App Store